Showing default

FLOCK 4G 27, 62641

Orbit data source: Space-Track

FLOCK 4G 27, 62641 is a payload satellite owned by Planet (US) in SSO that was launched on Tue, 14 Jan 2025 UTC via an FALCON 9 launch vehicle from the Air Force Western Test Range (AFWTR). Payload-class satellites include a variety of spacecraft equipped with specific instruments for various scientific and technological missions. These include communications satellites like Starlink; space stations such as the ISS; scientific satellites like the Hubble; Earth observation satellites from companies like Planet Labs, Umbra, and HawkEye 360; GPS; miniature CubeSats for education and research; and military/defense satellites.

Loading next visibility...
Identifier
62641, 2025-009AJ
Orbit
SSO
Country
Flag of USUS
Related business
Manufacturer
Planet
Mission
Operational Commercial Imaging
Bus & Motor
CUBESAT 3U, Unknown motor
Mass
5.7 kg wet, 5.7 kg dry
Launch date (UTC)
2025-01-14 (9 months ago)
Launch vehicle
FALCON 9
Launch site
Air Force Western Test Range (AFWTR)
Object type
Payload
Rocket body
Debris
Shape & HBR
Box + 2 Pan, 1.0 m
Radar Cross Section
0.072 m², Medium (>0.1 m² and < 1m²)

Expand to show TLE details & history
Last TLE update: 8 hours ago

TLE from 8 hours ago
0 FLOCK 4G 27
1 62641U 25009AJ  25288.50606307  .00014442  00000-0  61376-3 0  9998
2 62641  97.4166   7.0690 0003930  98.3929 261.7754 15.23143048 41571
Epoch: 2025-10-15T12:08Z
TLE epoch observation values (Epoch: 2025-10-15T12:08:43.849Z)
Latitude
0.00005°
Longitude
160.60713°
Altitude
499.849 km
Speed
7.614 km/s
True Right ascension
00h 28m 16s
True Declination
0° 00' 00"
Sunlit
Object was in full shadow at epoch
Visualization orbit readout
Latitude
Unknown
Longitude
Unknown
Altitude
Unknown
Speed
Unknown
Apparent Right ascension
Unknown
Apparent Declination
Unknown
Sunlit
N/A
Visualization observer readout
Local Sidereal Time
14:29:03
Azimuth
Unknown
Elevation
Unknown
Doppler factor
Unknown
Orbital elements
Apogee altitude
496.03 km
Perigee altitude
490.629 km
Semi-major axis
6,871.466 km
Eccentricity
0.00039
Inclination
97.4166°
RAAN
7.069°
Arg. of periapsis
98.3929°
True anomaly
261.73083°
Mean anomaly
261.7754°
Eccentric anomaly
261.75312°
Mean motion
3.81039 °/min
Orbital period
94.48 mins
BSTAR
0.00061376
Loading maneuver chart data...
Computing Atmospheric mass density...
Loading historical data...
Loading historical data...
Loading historical data...
Loading historical data...
Loading historical data...
Loading historical data...
Loading historical data...

Documentation

Showing up to 5 results
|